OBJECT E, 68420

Orbit data source: Space-Track

You're viewing an Uncataloged Satellite

Recently launched and/or uncataloged satellites may have evolving metadata. Metadata may include but not limited to: Owner, Maufacturer, Bus, Motor, and Mission.

OBJECT E, 68420 is a satellite in SSO that was launched on Mon, 30 Mar 2026 UTC via an FALCON 9 launch vehicle from the Air Force Western Test Range (AFWTR). Unknown objects in Earth's orbit typically refer to objects detected orbiting the Earth but have not yet been identified or cataloged. These objects could be anything from previously untracked satellites, spent rocket stages, debris from satellite collisions, or even natural meteoroids temporarily captured by Earth's gravity.

Loading next visibility...
Identifier
68420, 2026-067E
Orbit
SSO
Country
Flag of TBDTBD
Related business
Manufacturer
NKUA
Mission
Operational spacecraft
Bus & Motor
CUBESAT 6U, Unknown motor
Mass
~10 kg wet, ~10 kg dry
Launch date (UTC)
2026-03-30 (2 months ago)
Launch vehicle
FALCON 9
Launch site
Air Force Western Test Range (AFWTR)
Object type
Unknown
Shape & HBR
Unknown shape, 1.1 m
Radar Cross Section
Medium (>0.1 m² and <1 m²)

Expand to show TLE details & history
Last TLE update: 3 days ago

TLE from 3 days ago
0 OBJECT E
1 68420U 26067E   26155.11664539  .00010713  00000-0  50733-3 0  9998
2 68420  97.4478 113.8128 0001210  63.0096 297.1262 15.19512267  9965
Epoch: 2026-06-04T02:47Z
TLE epoch observation values (Epoch: 2026-06-04T02:47:58.161Z)
Latitude
-0.00006°
Longitude
179.25495°
Altitude
510.022 km
Speed
7.609 km/s
True Right ascension
07h 35m 15s
True Declination
0° 00' 00"
Sunlit
Object was in daylight at epoch
Visualization orbit readout
Latitude
Unknown
Longitude
Unknown
Altitude
Unknown
Speed
Unknown
Apparent Right ascension
Unknown
Apparent Declination
Unknown
Sunlit
N/A
Visualization observer readout
Local Sidereal Time
03:11:45
Azimuth
Unknown
Elevation
Unknown
Doppler factor
Unknown
Orbital elements
Apogee altitude
505.115 km
Perigee altitude
503.449 km
Semi-major axis
6,882.419 km
Eccentricity
0.00012
Inclination
97.4478°
RAAN
113.8128°
Arg. of periapsis
63.0096°
True anomaly
297.11386°
Mean anomaly
297.1262°
Eccentric anomaly
297.12003°
Mean motion
3.80129 °/min
Orbital period
94.7 mins
BSTAR
0.00050733
Loading maneuver chart data...
Computing Atmospheric mass density...
Loading historical data...
Loading historical data...
Loading historical data...
Loading historical data...
Loading historical data...
Loading historical data...
Loading historical data...

Documentation

Showing up to 5 results
|